This is the latest recevied weather packets stored in our database for station/object N3FWE. If no packets are shown the sender has not sent any weather packets the latest 10 day(s).
| Time | Temp. | Humidity | Pressure | Rain* | Wind** | Luminosity | Snow |
|---|---|---|---|---|---|---|---|
| 1777914014 | 22.78° C | 39% | 1011.8 hPa | 0 mm | - | - | - |
| 1777913414 | 22.22° C | 38% | 1012 hPa | 0 mm | - | - | - |
| 1777912814 | 22.22° C | 39% | 1012.2 hPa | 0 mm | - | - | - |
| 1777912214 | 22.22° C | 38% | 1012.4 hPa | 0 mm | - | - | - |
| 1777911614 | 21.67° C | 39% | 1012.5 hPa | 0 mm | - | - | - |
| 1777911014 | 21.67° C | 41% | 1012.7 hPa | 0 mm | - | - | - |
| 1777910414 | 21.67° C | 38% | 1012.9 hPa | 0 mm | - | - | - |
| 1777909814 | 21.11° C | 40% | 1013.1 hPa | 0 mm | - | - | - |
| 1777909214 | 20.56° C | 41% | 1013.2 hPa | 0 mm | - | - | - |
| 1777908614 | 20.56° C | 39% | 1013.4 hPa | 0 mm | - | - | - |
| 1777908014 | 20.56° C | 40% | 1013.5 hPa | 0 mm | - | - | - |
| 1777907414 | 20° C | 43% | 1013.5 hPa | 0 mm | - | - | - |
| 1777906814 | 18.89° C | 45% | 1013.6 hPa | 0 mm | - | - | - |
| 1777906214 | 18.33° C | 44% | 1013.7 hPa | 0 mm | - | - | - |
| 1777905615 | 18.33° C | 44% | 1013.7 hPa | 0 mm | - | - | - |
| 1777905013 | 17.78° C | 47% | 1013.8 hPa | 0 mm | - | - | - |
| 1777904413 | 16.67° C | 48% | 1014 hPa | 0 mm | - | - | - |
| 1777903813 | 16.11° C | 47% | 1014.1 hPa | 0 mm | - | - | - |
| 1777903214 | 16.11° C | 52% | 1014.1 hPa | 0 mm | - | - | - |
| 1777902614 | 15° C | 49% | 1014.1 hPa | 0 mm | - | - | - |
| 1777902013 | 15° C | 51% | 1014.2 hPa | 0 mm | - | - | - |
| 1777901414 | 13.89° C | 53% | 1014.3 hPa | 0 mm | - | - | - |
| 1777900813 | 13.33° C | 54% | 1014.4 hPa | 0 mm | - | - | - |
| 1777900214 | 12.22° C | 57% | 1014.5 hPa | 0 mm | - | - | - |
| 1777899614 | 11.67° C | 59% | 1014.7 hPa | 0 mm | - | - | - |
* Rain latest hour (hover to see other rain measurements)
** Current wind speed in m/s (hover to see current wind gust speed)